When you browse on this site, cookies collect data to enhance your experience and personalize the content and advertising you see.
Visit our Privacy Policy to learn more. By continuing to use the site, you agree to this use of cookies and data.
  • In Spain
  • List of Countries
  • For 7 days
  • Water Temperature
  • Weather Map
  • Weather Widgets
  • user-avatar
    Login

    Hourly Weather Nottingham

    Today, 17 September, Tuesday

    Time Temperature Precipitation Wind Pressure Humidity
    00:00 +10°C° 0 mm 2 mps 762 mmHg 86%
    01:00 +10°C° 0 mm 2 mps 762 mmHg 87%
    02:00 +9°C° 0 mm 2 mps 762 mmHg 88%
    03:00 +9°C° 0 mm 2 mps 762 mmHg 88%
    04:00 +9°C° 0 mm 2 mps 762 mmHg 88%
    05:00 +9°C° 0 mm 2 mps 762 mmHg 89%
    06:00 +8°C° 0 mm 2 mps 763 mmHg 89%
    07:00 +10°C° 0 mm 2 mps 763 mmHg 82%
    08:00 +11°C° 0 mm 3 mps 763 mmHg 74%
    09:00 +13°C° 0 mm 3 mps 763 mmHg 67%
    10:00 +14°C° 0 mm 3 mps 763 mmHg 63%
    11:00 +16°C° 0 mm 3 mps 764 mmHg 59%
    12:00 +16°C° 0 mm 3 mps 764 mmHg 55%
    13:00 +17°C° 0 mm 3 mps 764 mmHg 54%
    14:00 +17°C° 0 mm 3 mps 764 mmHg 53%
    15:00 +17°C° 0 mm 3 mps 764 mmHg 51%
    16:00 +16°C° 0 mm 3 mps 764 mmHg 56%
    17:00 +13°C° 0 mm 3 mps 764 mmHg 60%
    18:00 +13°C° 0 mm 2 mps 764 mmHg 65%
    19:00 +12°C° 0 mm 2 mps 765 mmHg 67%
    20:00 +10°C° 0 mm 2 mps 765 mmHg 70%
    21:00 +9°C° 0 mm 2 mps 766 mmHg 73%
    22:00 +9°C° 0 mm 1 mps 766 mmHg 74%
    23:00 +9°C° 0 mm 1 mps 766 mmHg 75%

    Tomorrow, 18 September, Wednesday

    Time Temperature Precipitation Wind Pressure Humidity
    00:00 +8°C° 0 mm 0 mps 766 mmHg 75%
    01:00 +8°C° 0 mm 0 mps 766 mmHg 76%
    02:00 +7°C° 0 mm 0 mps 766 mmHg 76%
    03:00 +7°C° 0 mm 0 mps 766 mmHg 77%
    04:00 +7°C° 0 mm 0 mps 766 mmHg 77%
    05:00 +7°C° 0 mm 0 mps 766 mmHg 77%
    06:00 +7°C° 0 mm 0 mps 767 mmHg 78%
    07:00 +10°C° 0 mm 1 mps 767 mmHg 73%
    08:00 +11°C° 0 mm 1 mps 767 mmHg 68%
    09:00 +13°C° 0 mm 2 mps 767 mmHg 63%
    10:00 +14°C° 0 mm 2 mps 767 mmHg 60%
    11:00 +15°C° 0 mm 2 mps 767 mmHg 58%
    12:00 +16°C° 0 mm 2 mps 767 mmHg 55%
    13:00 +17°C° 0 mm 2 mps 766 mmHg 55%
    14:00 +17°C° 0 mm 2 mps 766 mmHg 56%
    15:00 +18°C° 0 mm 2 mps 766 mmHg 56%
    16:00 +17°C° 0 mm 2 mps 766 mmHg 62%
    17:00 +16°C° 0 mm 2 mps 766 mmHg 68%
    18:00 +15°C° 0 mm 2 mps 766 mmHg 74%
    19:00 +14°C° 0 mm 2 mps 766 mmHg 75%
    20:00 +13°C° 0 mm 2 mps 767 mmHg 76%
    21:00 +13°C° 0 mm 1 mps 767 mmHg 77%
    22:00 +12°C° 0 mm 1 mps 767 mmHg 78%
    23:00 +12°C° 0 mm 1 mps 767 mmHg 79%

    Day after tomorrow, 19 September, Thursday

    Time Temperature Precipitation Wind Pressure Humidity
    00:00 +12°C° 0 mm 1 mps 767 mmHg 80%
    01:00 +11°C° 0 mm 1 mps 767 mmHg 81%
    02:00 +11°C° 0 mm 1 mps 767 mmHg 82%
    03:00 +11°C° 0 mm 1 mps 767 mmHg 84%
    04:00 +10°C° 0 mm 0 mps 767 mmHg 84%
    05:00 +10°C° 0 mm 0 mps 767 mmHg 85%
    06:00 +10°C° 0 mm 0 mps 767 mmHg 86%
    07:00 +11°C° 0 mm 0 mps 767 mmHg 80%
    08:00 +14°C° 0 mm 1 mps 767 mmHg 75%
    09:00 +16°C° 0 mm 1 mps 768 mmHg 70%
    10:00 +18°C° 0 mm 1 mps 768 mmHg 66%
    11:00 +19°C° 0 mm 1 mps 768 mmHg 63%
    12:00 +20°C° 0 mm 1 mps 768 mmHg 59%
    13:00 +21°C° 0 mm 1 mps 767 mmHg 57%
    14:00 +21°C° 0 mm 1 mps 767 mmHg 56%
    15:00 +21°C° 0 mm 1 mps 767 mmHg 55%
    16:00 +20°C° 0 mm 1 mps 767 mmHg 60%
    17:00 +19°C° 0 mm 1 mps 767 mmHg 66%
    18:00 +18°C° 0 mm 1 mps 767 mmHg 71%
    19:00 +16°C° 0 mm 1 mps 767 mmHg 74%
    20:00 +15°C° 0 mm 1 mps 767 mmHg 76%
    21:00 +14°C° 0 mm 0 mps 767 mmHg 79%
    22:00 +13°C° 0 mm 0 mps 767 mmHg 80%
    23:00 +14°C° 0 mm 1 mps 767 mmHg 81%

    20 September, Friday

    Time Temperature Precipitation Wind Pressure Humidity
    00:00 +14°C° 0 mm 1 mps 766 mmHg 82%
    01:00 +13°C° 0 mm 1 mps 766 mmHg 83%
    02:00 +13°C° 0 mm 1 mps 766 mmHg 84%
    03:00 +13°C° 0 mm 1 mps 766 mmHg 84%
    04:00 +12°C° 0 mm 1 mps 766 mmHg 85%
    05:00 +12°C° 0 mm 1 mps 766 mmHg 86%
    06:00 +12°C° 0 mm 1 mps 765 mmHg 87%
    07:00 +13°C° 0 mm 2 mps 765 mmHg 82%
    08:00 +15°C° 0 mm 2 mps 765 mmHg 77%
    09:00 +16°C° 0 mm 2 mps 765 mmHg 71%
    10:00 +18°C° 0 mm 3 mps 765 mmHg 69%
    11:00 +19°C° 0 mm 3 mps 764 mmHg 66%
    12:00 +20°C° 0 mm 4 mps 764 mmHg 63%
    13:00 +20°C° 0 mm 4 mps 763 mmHg 62%
    14:00 +20°C° 0 mm 4 mps 763 mmHg 61%
    15:00 +21°C° 0 mm 4 mps 762 mmHg 61%
    16:00 +19°C° 0 mm 4 mps 762 mmHg 63%
    17:00 +18°C° 0 mm 4 mps 761 mmHg 66%
    18:00 +17°C° 0 mm 4 mps 761 mmHg 69%
    19:00 +15°C° 0 mm 4 mps 760 mmHg 70%
    20:00 +13°C° 0 mm 4 mps 760 mmHg 70%
    21:00 +12°C° 0 mm 4 mps 760 mmHg 71%
    22:00 +12°C° 0 mm 4 mps 760 mmHg 73%
    23:00 +12°C° 0 mm 4 mps 759 mmHg 76%

    21 September, Saturday

    Time Temperature Precipitation Wind Pressure Humidity
    00:00 +11°C° 0 mm 3 mps 759 mmHg 78%
    01:00 +11°C° 0 mm 3 mps 758 mmHg 79%
    02:00 +11°C° 0 mm 3 mps 758 mmHg 80%
    03:00 +11°C° 0 mm 3 mps 757 mmHg 80%
    04:00 +11°C° 0 mm 3 mps 757 mmHg 80%
    05:00 +10°C° 0 mm 3 mps 756 mmHg 79%
    06:00 +10°C° 0 mm 3 mps 755 mmHg 78%
    07:00 +12°C° 0 mm 4 mps 755 mmHg 73%
    08:00 +13°C° 0 mm 4 mps 755 mmHg 68%
    09:00 +14°C° 0 mm 5 mps 754 mmHg 63%
    10:00 +16°C° 0 mm 5 mps 754 mmHg 59%
    11:00 +19°C° 0 mm 5 mps 753 mmHg 55%
    12:00 +20°C° 0 mm 5 mps 753 mmHg 51%
    13:00 +21°C° 0 mm 5 mps 752 mmHg 51%
    14:00 +21°C° 0 mm 5 mps 752 mmHg 51%
    15:00 +22°C° 0 mm 5 mps 751 mmHg 51%
    16:00 +21°C° 0 mm 4 mps 751 mmHg 56%
    17:00 +20°C° 0 mm 4 mps 750 mmHg 62%
    18:00 +19°C° 0 mm 3 mps 750 mmHg 67%
    19:00 +18°C° 0.2 mm 3 mps 750 mmHg 72%
    20:00 +18°C° 0.2 mm 3 mps 750 mmHg 76%
    21:00 +17°C° 0.2 mm 3 mps 750 mmHg 81%
    22:00 +17°C° 0.6 mm 3 mps 749 mmHg 84%
    23:00 +17°C° 0.6 mm 4 mps 749 mmHg 86%

    22 September, Sunday

    Time Temperature Precipitation Wind Pressure Humidity
    00:00 +17°C° 0.6 mm 4 mps 749 mmHg 89%
    01:00 +17°C° 0 mm 4 mps 749 mmHg 90%
    02:00 +15°C° 0 mm 4 mps 749 mmHg 91%
    03:00 +15°C° 0 mm 5 mps 749 mmHg 92%
    04:00 +15°C° 0 mm 5 mps 749 mmHg 92%
    05:00 +15°C° 0 mm 5 mps 749 mmHg 92%
    06:00 +15°C° 0 mm 5 mps 749 mmHg 93%
    07:00 +15°C° 0.7 mm 5 mps 749 mmHg 92%
    08:00 +16°C° 0.7 mm 5 mps 749 mmHg 91%
    09:00 +16°C° 0.7 mm 5 mps 749 mmHg 90%
    10:00 +17°C° 0 mm 6 mps 750 mmHg 81%
    11:00 +19°C° 0 mm 6 mps 750 mmHg 72%
    12:00 +20°C° 0 mm 6 mps 750 mmHg 63%
    13:00 +20°C° 0.1 mm 6 mps 750 mmHg 62%
    14:00 +19°C° 0.1 mm 6 mps 750 mmHg 60%
    15:00 +19°C° 0.1 mm 6 mps 750 mmHg 59%
    16:00 +17°C° 0 mm 6 mps 751 mmHg 63%
    17:00 +16°C° 0 mm 5 mps 751 mmHg 67%
    18:00 +15°C° 0 mm 4 mps 752 mmHg 72%
    19:00 +14°C° 0 mm 4 mps 753 mmHg 74%
    20:00 +14°C° 0 mm 4 mps 753 mmHg 76%
    21:00 +13°C° 0 mm 4 mps 754 mmHg 79%
    22:00 +13°C° 0 mm 4 mps 754 mmHg 81%
    23:00 +12°C° 0 mm 4 mps 754 mmHg 83%
    Show more